Zurück zum Katalog

FENGYUN 1C DEB

LostPO
NORAD 35211·DEBRIS·🇨🇳 China

Gestartet May 10, 1999 von Taiyuan Satellite Launch Center

Loading…

Nächste Überflüge (nächste 24 Stunden)

TLE

VeraltetSource: Space-Track

Epoche: Jun 19, 2024, 10:04 UTC

1 35211U 99025DPT 24171.41985999  .00002363  00000-0  14682-2 0  9993
2 35211  98.4412  53.2555 0137462   5.0259 171.0941 14.01332273819963

Verfolge FENGYUN 1C DEB in Echtzeit mit AllMySat

Download on the App Store